This is the latest recevied weather packets stored in our database for station/object K1AWR. If no packets are shown the sender has not sent any weather packets the latest 10 day(s).
| Time | Temp. | Humidity | Pressure | Rain* | Wind** | Luminosity | Snow |
|---|---|---|---|---|---|---|---|
| 1788573205 | 22.78° C | 66% | 1010.5 hPa | 0 mm | - | 0 W/m² | - |
| 1788572905 | 22.78° C | 68% | 1010.5 hPa | 0 mm | - | 0 W/m² | - |
| 1788572600 | 23.33° C | 65% | 1010.5 hPa | 0 mm | - | 0 W/m² | - |
| 1788572295 | 23.33° C | 64% | 1010.7 hPa | 0 mm | - | 0 W/m² | - |
| 1788571992 | 23.33° C | 65% | 1010.7 hPa | 0 mm | - | 0 W/m² | - |
| 1788571687 | 23.33° C | 65% | 1010.7 hPa | 0 mm | - | 0 W/m² | - |
| 1788571382 | 23.33° C | 65% | 1010.7 hPa | 0 mm | - | 0 W/m² | - |
| 1788571079 | 23.33° C | 67% | 1010.8 hPa | 0 mm | - | 0 W/m² | - |
| 1788570774 | 22.78° C | 67% | 1010.8 hPa | 0 mm | - | 0 W/m² | - |
| 1788570469 | 23.33° C | 70% | 1010.9 hPa | 0 mm | - | 0 W/m² | - |
| 1788570164 | 22.22° C | 71% | 1011.2 hPa | 0 mm | - | 0 W/m² | - |
| 1788569861 | 22.22° C | 71% | 1010.9 hPa | 0 mm | - | 0 W/m² | - |
| 1788569556 | 22.22° C | 73% | 1011 hPa | 0 mm | - | 0 W/m² | - |
| 1788569256 | 22.22° C | 72% | 1011 hPa | 0 mm | - | 0 W/m² | - |
| 1788568951 | 22.22° C | 73% | 1011 hPa | 0 mm | - | 0 W/m² | - |
| 1788568651 | 22.22° C | 71% | 1011.1 hPa | 0 mm | - | 0 W/m² | - |
| 1788568347 | 21.67° C | 73% | 1010.7 hPa | 0 mm | - | 0 W/m² | - |
| 1788568042 | 22.78° C | 72% | 1011 hPa | 0 mm | - | 0 W/m² | - |
| 1788567743 | 22.78° C | 72% | 1010.8 hPa | 0 mm | - | 0 W/m² | - |
| 1788567443 | 22.78° C | 72% | 1010.7 hPa | 0 mm | - | 0 W/m² | - |
| 1788567142 | 22.78° C | 72% | 1010.8 hPa | 0 mm | - | 0 W/m² | - |
| 1788566837 | 22.78° C | 71% | 1010.7 hPa | 0 mm | - | 0 W/m² | - |
| 1788566533 | 22.78° C | 71% | 1010.5 hPa | 0 mm | - | 0 W/m² | - |
| 1788566228 | 22.78° C | 71% | 1010.4 hPa | 0 mm | - | 0 W/m² | - |
| 1788565923 | 22.78° C | 68% | 1010.5 hPa | 0 mm | - | 0 W/m² | - |
* Rain latest hour (hover to see other rain measurements)
** Current wind speed in m/s (hover to see current wind gust speed)